Вернуться в каталог

WEILI KONGJIAN 05-07

АктивенНавигацияLEO
NORAD 69588·PAYLOAD·🇨🇳 China
Это название спутника еще не подтверждено официальными источниками.

Запущен Jun 17, 2026 с Jiuquan Satellite Launch Center

Loading…

Ближайшие Пролёты (ближайшие 24 часа)

TLE

СвежийSource: Space-Track

Эпоха: Sep 14, 2026, 13:46 UTC

1 69588U 26138G   26257.57419299 -.00000114  00000-0  21366-4 0  9993
2 69588  55.1422 311.4085 0008364 239.2862 120.7286 14.08641225 12677

Отслеживайте WEILI KONGJIAN 05-07 в реальном времени с AllMySat

Download on the App Store